Brownwood, TX

1:27 PM CDT on March 29, 2017 (GMT -0500)
Brownwood Regional

Weather History for KBWD - March, 2013

Change the Weather History Date:

Wednesday, March 6, 2013

  Actual Average (KABI) Record (KABI)
Temperature  
Mean Temperature 42 °F -  
Max Temperature 62 °F 61 °F 90 °F (1929)
Min Temperature 23 °F 39 °F 16 °F (1920)
Degree Days  
Heating Degree Days 22    
Moisture  
Dew Point 12 °F    
Average Humidity 33    
Maximum Humidity 69    
Minimum Humidity 11    
Precipitation  
Precipitation 0.00 in - - ()
Sea Level Pressure  
Sea Level Pressure 30.32 in    
Wind  
Wind Speed 4 mph (SE)    
Max Wind Speed 14 mph    
Max Gust Speed 21 mph    
Visibility 10 miles    
Events      
Averages and records for this station are not official NWS values.
T = Trace of Precipitation, MM = Missing Value Source: NWS Daily Summary

Daily Weather History Graph

Daily Weather History Graph

Search for Another Location

Airport or City:

Trip Planner

Search our weather history database for the weather conditions in past years. The results will help you decide how hot, cold, wet, or windy it might be!

Date:

Astronomy

Mar. 06, 2013 Rise Set
Actual Time 6:56 AM CST 6:37 PM CST
Civil Twilight 6:32 AM CST 7:02 PM CST
Nautical Twilight 6:04 AM CST 7:30 PM CST
Astronomical Twilight 5:35 AM CST 7:58 PM CST
Moon 2:52 AM CST (3/6) 1:35 PM CST (3/6)
Length of Visible Light 12h 29m
Length of Day
11h 41m
Waning Crescent, 29% of the Moon is Illuminated
Mar 6
Waning Crescent
Mar 11
New
Mar 19
First Quarter
Mar 27
Full
Apr 2
Last Quarter

Hourly Weather History & Observations

Time (CST) Temp. Windchill Dew Point Humidity Pressure Visibility Wind Dir Wind Speed Gust Speed Precip Events Conditions
12:15 AM 32.0 °F - 10.4 °F 41% 30.38 in 10.0 mi Calm Calm - N/A   Clear
12:35 AM 32.0 °F - 10.4 °F 41% 30.39 in 10.0 mi Calm Calm - N/A   Clear
12:55 AM 32.0 °F - 10.4 °F 41% 30.39 in 10.0 mi Calm Calm - N/A   Clear
1:15 AM 28.4 °F - 10.4 °F 47% 30.39 in 10.0 mi Calm Calm - N/A   Clear
1:35 AM 28.4 °F - 10.4 °F 47% 30.39 in 10.0 mi Calm Calm - N/A   Clear
1:55 AM 28.4 °F - 10.4 °F 47% 30.39 in 10.0 mi Calm Calm - N/A   Clear
2:15 AM 24.8 °F - 12.2 °F 59% 30.39 in 10.0 mi Calm Calm - N/A   Clear
2:35 AM 26.6 °F - 12.2 °F 55% 30.38 in 10.0 mi Calm Calm - N/A   Clear
2:55 AM 26.6 °F - 12.2 °F 55% 30.37 in 10.0 mi Calm Calm - N/A   Clear
3:15 AM 24.8 °F - 12.2 °F 59% 30.37 in 10.0 mi Calm Calm - N/A   Clear
3:35 AM 26.6 °F - 12.2 °F 55% 30.37 in 10.0 mi Calm Calm - N/A   Clear
3:55 AM 23.0 °F - 10.4 °F 59% 30.37 in 10.0 mi Calm Calm - N/A   Clear
4:15 AM 23.0 °F - 12.2 °F 63% 30.38 in 10.0 mi Calm Calm - N/A   Clear
4:55 AM 23.0 °F - 12.2 °F 63% 30.39 in 10.0 mi Calm Calm - N/A   Clear
5:15 AM 23.0 °F - 12.2 °F 63% 30.39 in 10.0 mi Calm Calm - N/A   Clear
5:35 AM 23.0 °F - 12.2 °F 63% 30.40 in 10.0 mi Calm Calm - N/A   Clear
5:55 AM 23.0 °F - 12.2 °F 63% 30.40 in 10.0 mi Calm Calm - N/A   Clear
6:15 AM 23.0 °F 17.0 °F 14.0 °F 68% 30.40 in 10.0 mi ENE 4.6 mph - N/A   Clear
6:35 AM 23.0 °F - 14.0 °F 68% 30.41 in 10.0 mi Calm Calm - N/A   Clear
6:55 AM 23.0 °F 18.4 °F 14.0 °F 68% 30.41 in 10.0 mi West 3.5 mph - N/A   Clear
7:15 AM 24.8 °F - 15.8 °F 69% 30.42 in 10.0 mi Calm Calm - N/A   Clear
7:35 AM 24.8 °F - 15.8 °F 69% 30.43 in 10.0 mi Calm Calm - N/A   Clear
7:55 AM 26.6 °F - 17.6 °F 69% 30.43 in 10.0 mi Calm Calm - N/A   Clear
8:15 AM 32.0 °F - 17.6 °F 55% 30.43 in 10.0 mi Calm Calm - N/A   Clear
8:35 AM 33.8 °F 30.8 °F 17.6 °F 52% 30.44 in 10.0 mi South 3.5 mph - N/A   Clear
8:55 AM 39.2 °F 37.0 °F 19.4 °F 45% 30.43 in 10.0 mi East 3.5 mph - N/A   Clear
9:15 AM 44.6 °F 40.7 °F 15.8 °F 31% 30.43 in 10.0 mi East 6.9 mph - N/A   Clear
9:35 AM 46.4 °F 42.4 °F 15.8 °F 29% 30.44 in 10.0 mi ESE 8.1 mph - N/A   Clear
9:55 AM 48.2 °F - 14.0 °F 25% 30.44 in 10.0 mi ESE 10.4 mph - N/A   Clear
10:15 AM 48.2 °F - 14.0 °F 25% 30.44 in 10.0 mi ESE 9.2 mph - N/A   Clear
10:35 AM 50.0 °F - 14.0 °F 24% 30.44 in 10.0 mi ESE 9.2 mph - N/A   Clear
10:55 AM 50.0 °F - 14.0 °F 24% 30.44 in 10.0 mi East 5.8 mph - N/A   Clear
11:15 AM 51.8 °F - 14.0 °F 22% 30.42 in 10.0 mi ESE 9.2 mph - N/A   Clear
11:35 AM 53.6 °F - 14.0 °F 21% 30.42 in 10.0 mi SE 8.1 mph - N/A   Clear
11:55 AM 55.4 °F - 14.0 °F 20% 30.40 in 10.0 mi SE 11.5 mph - N/A   Clear
12:15 PM 55.4 °F - 10.4 °F 17% 30.38 in 10.0 mi SE 10.4 mph - N/A   Clear
12:35 PM 55.4 °F - 12.2 °F 18% 30.37 in 10.0 mi SE 10.4 mph - N/A   Clear
12:55 PM 57.2 °F - 10.4 °F 16% 30.34 in 10.0 mi SE 11.5 mph 16.1 mph N/A   Clear
1:15 PM 59.0 °F - 12.2 °F 16% 30.32 in 10.0 mi ESE 11.5 mph 16.1 mph N/A   Clear
1:35 PM 59.0 °F - 10.4 °F 15% 30.29 in 10.0 mi SE 11.5 mph 16.1 mph N/A   Clear
1:55 PM 59.0 °F - 8.6 °F 14% 30.27 in 10.0 mi SE 9.2 mph 20.7 mph N/A   Clear
2:15 PM 60.8 °F - 8.6 °F 13% 30.25 in 10.0 mi ESE 13.8 mph 19.6 mph N/A   Clear
2:35 PM 59.0 °F - 10.4 °F 15% 30.26 in 10.0 mi ESE 11.5 mph - N/A   Clear
2:55 PM 60.8 °F - 10.4 °F 14% 30.25 in 10.0 mi ESE 11.5 mph - N/A   Clear
3:15 PM 60.8 °F - 6.8 °F 12% 30.25 in 10.0 mi South 8.1 mph - N/A   Clear
3:35 PM 60.8 °F - 8.6 °F 13% 30.23 in 10.0 mi SE 9.2 mph 18.4 mph N/A   Clear
3:55 PM 62.6 °F - 10.4 °F 13% 30.23 in 10.0 mi SE 9.2 mph - N/A   Clear
4:15 PM 62.6 °F - 8.6 °F 12% 30.23 in 10.0 mi South 8.1 mph - N/A   Clear
4:35 PM 62.6 °F - 8.6 °F 12% 30.21 in 10.0 mi SE 9.2 mph - N/A   Clear
4:55 PM 62.6 °F - 6.8 °F 11% 30.21 in 10.0 mi SE 8.1 mph - N/A   Clear
5:15 PM 62.6 °F - 8.6 °F 12% 30.20 in 10.0 mi SE 10.4 mph - N/A   Clear
5:35 PM 60.8 °F - 8.6 °F 13% 30.20 in 10.0 mi SE 12.7 mph 16.1 mph N/A   Clear
5:55 PM 60.8 °F - 8.6 °F 13% 30.21 in 10.0 mi SE 12.7 mph - N/A   Clear
6:15 PM 59.0 °F - 8.6 °F 14% 30.21 in 10.0 mi SSE 8.1 mph - N/A   Clear
6:35 PM 57.2 °F - 10.4 °F 16% 30.20 in 10.0 mi SE 8.1 mph - N/A   Clear
6:55 PM 53.6 °F - 12.2 °F 19% 30.20 in 10.0 mi ESE 8.1 mph - N/A   Clear
7:15 PM 51.8 °F - 14.0 °F 22% 30.20 in 10.0 mi ESE 8.1 mph - N/A   Partly Cloudy
7:35 PM 51.8 °F - 12.2 °F 21% 30.20 in 10.0 mi SE 8.1 mph - N/A   Mostly Cloudy
7:55 PM 50.0 °F - 14.0 °F 24% 30.20 in 10.0 mi SE 8.1 mph - N/A   Overcast
8:15 PM 50.0 °F - 12.2 °F 22% 30.20 in 10.0 mi SE 8.1 mph - N/A   Overcast
8:35 PM 51.8 °F - 12.2 °F 21% 30.20 in 10.0 mi SE 8.1 mph - N/A   Overcast
8:55 PM 50.0 °F - 12.2 °F 22% 30.20 in 10.0 mi SE 9.2 mph - N/A   Overcast
9:15 PM 50.0 °F - 12.2 °F 22% 30.20 in 10.0 mi SE 9.2 mph - N/A   Overcast
9:35 PM 48.2 °F - 14.0 °F 25% 30.21 in 10.0 mi SE 8.1 mph - N/A   Overcast
9:55 PM 48.2 °F - 14.0 °F 25% 30.21 in 10.0 mi SSE 6.9 mph - N/A   Overcast
10:15 PM 50.0 °F - 14.0 °F 24% 30.20 in 10.0 mi SSE 11.5 mph - N/A   Overcast
10:35 PM 50.0 °F - 14.0 °F 24% 30.19 in 10.0 mi SSE 10.4 mph - N/A   Overcast
10:55 PM 48.2 °F - 14.0 °F 25% 30.19 in 10.0 mi SSE 11.5 mph - N/A   Overcast
11:15 PM 48.2 °F - 14.0 °F 25% 30.18 in 10.0 mi SSE 9.2 mph - N/A   Overcast
11:35 PM 48.2 °F - 14.0 °F 25% 30.17 in 10.0 mi SSE 8.1 mph - N/A   Overcast